TimeCST,TemperatureF,Dew PointF,Humidity,Sea Level PressureIn,VisibilityMPH,Wind Direction,Wind SpeedMPH,Gust SpeedMPH,PrecipitationIn,Events,Conditions,WindDirDegrees,DateUTC
12:15 AM,51.1,41.9,71,29.95,10.0,East,6.9,-,N/A,,Overcast,100,2013-11-05 06:15:00
12:35 AM,52.0,44.1,74,29.94,10.0,East,10.4,-,N/A,,Overcast,100,2013-11-05 06:35:00
12:55 AM,52.7,45.0,75,29.94,10.0,East,9.2,-,N/A,,Overcast,100,2013-11-05 06:55:00
1:15 AM,52.7,45.5,76,29.93,10.0,ESE,9.2,-,N/A,,Overcast,110,2013-11-05 07:15:00
1:35 AM,52.9,46.6,79,29.93,10.0,ESE,8.1,-,N/A,,Overcast,110,2013-11-05 07:35:00
1:55 AM,53.8,48.6,82,29.93,10.0,SE,11.5,-,N/A,,Overcast,130,2013-11-05 07:55:00
2:15 AM,53.6,48.2,82,29.92,10.0,SE,10.4,-,N/A,,Overcast,140,2013-11-05 08:15:00
2:35 AM,54.5,49.3,83,29.92,10.0,SSE,12.7,-,N/A,,Overcast,150,2013-11-05 08:35:00
2:55 AM,55.4,51.3,86,29.91,10.0,SSE,12.7,-,N/A,,Overcast,160,2013-11-05 08:55:00
3:15 AM,55.6,51.8,87,29.91,10.0,SSE,12.7,-,N/A,,Overcast,160,2013-11-05 09:15:00
3:35 AM,55.4,52.0,88,29.91,10.0,SSE,12.7,-,N/A,,Overcast,160,2013-11-05 09:35:00
3:55 AM,55.0,52.0,89,29.91,10.0,South,13.8,-,N/A,,Overcast,170,2013-11-05 09:55:00
4:15 AM,54.9,52.2,91,29.91,10.0,SSE,11.5,-,N/A,,Overcast,160,2013-11-05 10:15:00
4:35 AM,54.9,52.2,91,29.91,10.0,SSE,11.5,-,N/A,,Overcast,160,2013-11-05 10:35:00
4:55 AM,55.0,52.9,92,29.90,10.0,SSE,12.7,-,N/A,,Overcast,160,2013-11-05 10:55:00
5:15 AM,55.2,53.4,94,29.90,10.0,SSE,11.5,-,N/A,,Overcast,160,2013-11-05 11:15:00
5:35 AM,54.0,52.3,94,29.91,5.0,South,10.4,-,0.03,,Overcast,180,2013-11-05 11:35:00
5:55 AM,53.8,52.5,95,29.89,4.0,SSE,16.1,-,0.10,,Overcast,150,2013-11-05 11:55:00
6:15 AM,53.1,51.8,95,29.88,7.0,SSE,16.1,-,N/A,,Overcast,150,2013-11-05 12:15:00
6:35 AM,53.2,52.2,96,29.88,7.0,SSE,16.1,-,N/A,,Overcast,150,2013-11-05 12:35:00
6:55 AM,53.1,52.0,96,29.87,10.0,SSE,20.7,-,0.01,,Overcast,150,2013-11-05 12:55:00
7:15 AM,53.8,52.7,96,29.90,7.0,South,18.4,-,N/A,,Overcast,170,2013-11-05 13:15:00
7:35 AM,53.6,52.7,97,29.89,1.5,South,16.1,-,N/A,,Overcast,170,2013-11-05 13:35:00
7:55 AM,53.6,52.7,97,29.90,2.5,South,16.1,-,N/A,,Overcast,170,2013-11-05 13:55:00
8:15 AM,53.8,52.9,97,29.89,2.0,SSE,16.1,-,N/A,,Overcast,160,2013-11-05 14:15:00
8:35 AM,54.1,53.4,97,29.89,2.5,SSE,18.4,25.3,N/A,,Overcast,160,2013-11-05 14:35:00
8:55 AM,54.7,53.8,97,29.90,4.0,South,20.7,26.5,N/A,,Overcast,170,2013-11-05 14:55:00
9:15 AM,55.4,54.5,97,29.90,4.0,South,17.3,-,N/A,,Overcast,170,2013-11-05 15:15:00
9:35 AM,55.4,54.5,97,29.89,3.0,South,18.4,23.0,N/A,,Overcast,170,2013-11-05 15:35:00
9:55 AM,55.4,54.5,97,29.90,3.0,South,17.3,-,N/A,,Overcast,170,2013-11-05 15:55:00
10:15 AM,54.9,54.0,97,29.90,7.0,South,11.5,-,N/A,,Overcast,180,2013-11-05 16:15:00
10:35 AM,54.7,53.6,96,29.91,10.0,South,13.8,-,0.01,,Overcast,190,2013-11-05 16:35:00
10:55 AM,55.0,53.8,96,29.90,7.0,South,13.8,-,0.05,,Overcast,180,2013-11-05 16:55:00
11:15 AM,55.4,54.1,96,29.89,5.0,South,12.7,-,0.02,,Overcast,170,2013-11-05 17:15:00
11:35 AM,55.4,54.3,96,29.90,7.0,SSW,13.8,-,0.02,,Overcast,200,2013-11-05 17:35:00
11:55 AM,55.8,54.7,96,29.90,4.0,South,11.5,17.3,0.04,,Overcast,180,2013-11-05 17:55:00
12:15 PM,56.5,55.4,96,29.89,7.0,South,12.7,-,N/A,,Overcast,180,2013-11-05 18:15:00
12:35 PM,56.8,55.8,96,29.87,10.0,South,15.0,-,0.01,,Overcast,190,2013-11-05 18:35:00
12:55 PM,58.3,56.8,95,29.87,10.0,South,19.6,-,0.01,,Overcast,190,2013-11-05 18:55:00
1:15 PM,60.3,57.9,92,29.86,10.0,SSW,19.6,24.2,N/A,,Overcast,200,2013-11-05 19:15:00
1:35 PM,61.2,57.6,88,29.85,10.0,SSW,20.7,-,N/A,,Overcast,200,2013-11-05 19:35:00
1:55 PM,61.7,57.2,85,29.85,10.0,SSW,18.4,-,N/A,,Overcast,210,2013-11-05 19:55:00
2:15 PM,61.9,56.8,84,29.86,10.0,SSW,16.1,-,N/A,,Overcast,210,2013-11-05 20:15:00
2:35 PM,63.0,57.4,82,29.85,10.0,SSW,16.1,21.9,N/A,,Overcast,210,2013-11-05 20:35:00
2:55 PM,63.7,57.4,80,29.85,10.0,SSW,11.5,-,N/A,,Mostly Cloudy,210,2013-11-05 20:55:00
3:15 PM,56.7,50.7,80,29.87,10.0,NNW,25.3,28.8,N/A,,Mostly Cloudy,330,2013-11-05 21:15:00
3:35 PM,51.6,47.3,85,29.90,10.0,NNW,31.1,36.8,N/A,,Overcast,330,2013-11-05 21:35:00
3:55 PM,49.8,46.4,88,29.91,10.0,NNW,26.5,33.4,N/A,,Overcast,340,2013-11-05 21:55:00
4:15 PM,49.5,46.0,88,29.93,10.0,NNW,20.7,26.5,N/A,,Overcast,340,2013-11-05 22:15:00
4:35 PM,50.0,45.1,83,29.94,10.0,NNW,24.2,29.9,N/A,,Overcast,340,2013-11-05 22:35:00
4:55 PM,49.6,44.4,82,29.95,10.0,NNW,23.0,28.8,N/A,,Overcast,340,2013-11-05 22:55:00
5:15 PM,48.7,43.2,81,29.96,10.0,North,21.9,29.9,N/A,,Overcast,350,2013-11-05 23:15:00
5:35 PM,47.5,41.9,81,29.98,10.0,North,25.3,-,N/A,,Overcast,350,2013-11-05 23:35:00
5:55 PM,46.4,40.1,79,29.98,10.0,North,27.6,33.4,N/A,,Overcast,350,2013-11-05 23:55:00
6:15 PM,45.1,38.7,78,30.00,10.0,North,32.2,38.0,N/A,,Overcast,350,2013-11-06 00:15:00
6:35 PM,44.2,37.8,78,30.02,10.0,North,29.9,-,N/A,,Mostly Cloudy,350,2013-11-06 00:35:00
6:55 PM,43.3,36.7,77,30.03,10.0,North,29.9,34.5,N/A,,Overcast,350,2013-11-06 00:55:00
7:15 PM,43.0,36.1,77,30.05,10.0,North,28.8,34.5,N/A,,Overcast,350,2013-11-06 01:15:00
7:35 PM,42.8,37.0,80,30.06,10.0,NNW,20.7,26.5,N/A,,Overcast,340,2013-11-06 01:35:00
7:55 PM,42.8,36.5,78,30.07,10.0,NNW,24.2,33.4,N/A,,Overcast,330,2013-11-06 01:55:00
8:15 PM,42.3,35.6,77,30.07,10.0,NNW,25.3,35.7,N/A,,Overcast,340,2013-11-06 02:15:00
8:35 PM,41.5,35.1,78,30.08,10.0,NNW,24.2,33.4,N/A,,Overcast,340,2013-11-06 02:35:00
8:55 PM,40.8,35.6,82,30.09,10.0,North,20.7,-,N/A,,Scattered Clouds,350,2013-11-06 02:55:00
9:15 PM,40.1,35.2,83,30.09,10.0,NNW,19.6,23.0,N/A,,Clear,340,2013-11-06 03:15:00
9:35 PM,39.2,34.7,84,30.10,10.0,NNW,13.8,-,N/A,,Clear,340,2013-11-06 03:35:00
9:55 PM,39.0,35.1,86,30.13,10.0,NNW,17.3,-,N/A,,Scattered Clouds,340,2013-11-06 03:55:00
10:15 PM,38.7,34.0,83,30.14,10.0,North,17.3,25.3,N/A,,Scattered Clouds,350,2013-11-06 04:15:00
10:35 PM,37.9,34.5,87,30.15,10.0,NNW,13.8,-,N/A,,Clear,330,2013-11-06 04:35:00
10:55 PM,37.4,33.8,87,30.16,10.0,North,9.2,-,N/A,,Clear,350,2013-11-06 04:55:00
11:15 PM,36.9,34.0,89,30.16,10.0,North,9.2,-,N/A,,Clear,350,2013-11-06 05:15:00
11:35 PM,36.5,34.0,91,30.16,10.0,North,10.4,-,N/A,,Scattered Clouds,350,2013-11-06 05:35:00
11:55 PM,36.5,34.2,91,30.17,10.0,North,10.4,-,N/A,,Clear,350,2013-11-06 05:55:00